User: anonymous
Location: Oshawa
(43.9000°N, 78.8670°W)
Time: 10:29:20
(UTC-04:00)
Language:

PAYLOAD A - Orbit

View from above orbital plane
View from above orbital plane
View from above satellite
View from above satellite

Ground track
Ground track

The orbit data is extracted from the following two-line orbital elements,

1 27840U 03031A   14274.82311699  .00000101  00000-0  44743-4 0  6631
2 27840 098.2292 299.1273 0097932 220.5077 252.3809 14.38727186591046
Epoch (UTC): 01 October 2014 19:45:17
Eccentricity: 0.0097932
inclination: 98.2292°
perigee height: 693 km
apogee height: 832 km
right ascension of ascending node: 299.1273°
argument of perigee: 220.5077°
revolutions per day: 14.38727186
mean anomaly at epoch: 252.3809°
orbit number at epoch: 59104

The dashed part of the orbit path shows where the satellite is in the earth's shadow,  

DLR